This is the latest recevied weather packets stored in our database for station/object W0WFX-2. If no packets are shown the sender has not sent any weather packets the latest 10 day(s).
| Time | Temp. | Humidity | Pressure | Rain* | Wind** | Luminosity | Snow |
|---|---|---|---|---|---|---|---|
| 1788269899 | 26.11° C | 64% | 1016.9 hPa | 0 mm | - | 60 W/m² | - |
| 1788269598 | 25.56° C | 64% | 1017 hPa | 0 mm | - | 57 W/m² | - |
| 1788269297 | 25.56° C | 66% | 1016.9 hPa | 0 mm | - | 65 W/m² | - |
| 1788268992 | 25° C | 67% | 1017 hPa | 0 mm | - | 73 W/m² | - |
| 1788268686 | 25° C | 68% | 1017 hPa | 0 mm | - | 51 W/m² | - |
| 1788268386 | 25° C | 67% | 1017 hPa | 0 mm | - | 49 W/m² | - |
| 1788268081 | 24.44° C | 68% | 1017 hPa | 0 mm | - | 47 W/m² | - |
| 1788267781 | 24.44° C | 68% | 1016.9 hPa | 0 mm | - | 44 W/m² | - |
| 1788267479 | 24.44° C | 69% | 1016.9 hPa | 0 mm | - | 42 W/m² | - |
| 1788267179 | 23.89° C | 68% | 1016.9 hPa | 0 mm | - | 40 W/m² | - |
| 1788266873 | 23.89° C | 69% | 1016.7 hPa | 0 mm | - | 35 W/m² | - |
| 1788266569 | 23.89° C | 69% | 1016.7 hPa | 0 mm | - | 35 W/m² | - |
| 1788266268 | 23.33° C | 70% | 1016.7 hPa | 0 mm | - | 32 W/m² | - |
| 1788265963 | 23.33° C | 71% | 1016.7 hPa | 0 mm | - | 30 W/m² | - |
| 1788265662 | 23.33° C | 71% | 1016.6 hPa | 0 mm | - | 27 W/m² | - |
| 1788265357 | 22.78° C | 71% | 1016.5 hPa | 0 mm | - | 24 W/m² | - |
| 1788265056 | 22.78° C | 71% | 1016.5 hPa | 0 mm | - | 21 W/m² | - |
| 1788264752 | 22.78° C | 73% | 1016.3 hPa | 0 mm | - | 17 W/m² | - |
| 1788264451 | 22.78° C | 72% | 1016.5 hPa | 0 mm | - | 14 W/m² | - |
| 1788264146 | 22.78° C | 71% | 1016.5 hPa | 0 mm | - | 11 W/m² | - |
| 1788263841 | 22.78° C | 72% | 1016.2 hPa | 0 mm | - | 8 W/m² | - |
| 1788263538 | 22.78° C | 71% | 1016.3 hPa | 0 mm | - | 5 W/m² | - |
| 1788263234 | 22.78° C | 70% | 1016.1 hPa | 0 mm | - | 3 W/m² | - |
| 1788262929 | 22.78° C | 70% | 1015.9 hPa | 0 mm | - | 2 W/m² | - |
| 1788262627 | 23.33° C | 69% | 1016.1 hPa | 0 mm | - | 1 W/m² | - |
* Rain latest hour (hover to see other rain measurements)
** Current wind speed in m/s (hover to see current wind gust speed)